• In Czech Republic
  • List of Countries
  • For 7 days
  • Water Temperature
  • Satellite Maps
  • Weather Map
  • Weather Widgets
  • user-avatar
    Login

    Hourly Weather Chichester

    Today, 17 October, Tuesday

    Time Temperature Precipitation Wind Pressure Humidity
    00:00 +12°C° 0 mm 8 mps 763 mmHg 74%
    01:00 +11°C° 0 mm 8 mps 763 mmHg 74%
    02:00 +11°C° 0 mm 7 mps 763 mmHg 74%
    03:00 +11°C° 0 mm 7 mps 763 mmHg 75%
    04:00 +11°C° 0 mm 6 mps 763 mmHg 77%
    05:00 +10°C° 0 mm 5 mps 763 mmHg 78%
    06:00 +11°C° 0 mm 4 mps 763 mmHg 80%
    07:00 +12°C° 0 mm 4 mps 763 mmHg 76%
    08:00 +13°C° 0 mm 4 mps 763 mmHg 72%
    09:00 +14°C° 0 mm 4 mps 763 mmHg 67%
    10:00 +16°C° 0 mm 3 mps 763 mmHg 64%
    11:00 +16°C° 0 mm 3 mps 763 mmHg 61%
    12:00 +17°C° 0 mm 3 mps 763 mmHg 58%
    13:00 +17°C° 0.1 mm 2 mps 763 mmHg 61%
    14:00 +16°C° 0.1 mm 2 mps 762 mmHg 64%
    15:00 +16°C° 0.1 mm 2 mps 762 mmHg 68%
    16:00 +15°C° 0.1 mm 2 mps 761 mmHg 72%
    17:00 +14°C° 0.1 mm 2 mps 761 mmHg 76%
    18:00 +12°C° 0.1 mm 3 mps 761 mmHg 80%
    19:00 +12°C° 0 mm 3 mps 760 mmHg 80%
    20:00 +12°C° 0 mm 4 mps 760 mmHg 79%
    21:00 +12°C° 0 mm 4 mps 760 mmHg 79%
    22:00 +12°C° 0.1 mm 4 mps 759 mmHg 79%
    23:00 +12°C° 0.1 mm 5 mps 759 mmHg 79%

    Tomorrow, 18 October, Wednesday

    Time Temperature Precipitation Wind Pressure Humidity
    00:00 +12°C° 0.1 mm 5 mps 758 mmHg 79%
    01:00 +12°C° 0.2 mm 4 mps 758 mmHg 81%
    02:00 +12°C° 0.2 mm 4 mps 757 mmHg 84%
    03:00 +12°C° 0.2 mm 4 mps 757 mmHg 86%
    04:00 +12°C° 0.1 mm 3 mps 757 mmHg 88%
    05:00 +13°C° 0.1 mm 3 mps 757 mmHg 90%
    06:00 +14°C° 0.1 mm 2 mps 757 mmHg 93%
    07:00 +15°C° 0 mm 2 mps 757 mmHg 93%
    08:00 +14°C° 0 mm 3 mps 757 mmHg 93%
    09:00 +16°C° 0 mm 3 mps 757 mmHg 93%
    10:00 +17°C° 0 mm 3 mps 757 mmHg 88%
    11:00 +18°C° 0 mm 3 mps 756 mmHg 84%
    12:00 +19°C° 0 mm 4 mps 756 mmHg 79%
    13:00 +19°C° 0 mm 3 mps 756 mmHg 78%
    14:00 +19°C° 0 mm 3 mps 756 mmHg 77%
    15:00 +19°C° 0 mm 3 mps 756 mmHg 75%
    16:00 +18°C° 0.2 mm 2 mps 756 mmHg 81%
    17:00 +17°C° 0.2 mm 2 mps 756 mmHg 86%
    18:00 +16°C° 0.2 mm 2 mps 756 mmHg 91%
    19:00 +16°C° 0 mm 2 mps 756 mmHg 93%
    20:00 +16°C° 0 mm 2 mps 756 mmHg 94%
    21:00 +16°C° 0 mm 2 mps 756 mmHg 95%
    22:00 +16°C° 0.2 mm 2 mps 755 mmHg 95%
    23:00 +15°C° 0.2 mm 2 mps 755 mmHg 96%

    Day after tomorrow, 19 October, Thursday

    Time Temperature Precipitation Wind Pressure Humidity
    00:00 +14°C° 0.2 mm 3 mps 754 mmHg 97%
    01:00 +14°C° 0.1 mm 3 mps 754 mmHg 96%
    02:00 +14°C° 0.1 mm 4 mps 754 mmHg 96%
    03:00 +14°C° 0.1 mm 4 mps 753 mmHg 96%
    04:00 +14°C° 0 mm 4 mps 753 mmHg 96%
    05:00 +14°C° 0 mm 4 mps 753 mmHg 96%
    06:00 +14°C° 0 mm 4 mps 752 mmHg 96%
    07:00 +15°C° 0 mm 5 mps 752 mmHg 94%
    08:00 +15°C° 0 mm 5 mps 752 mmHg 92%
    09:00 +16°C° 0 mm 5 mps 752 mmHg 89%
    10:00 +16°C° 0 mm 5 mps 752 mmHg 86%
    11:00 +16°C° 0 mm 6 mps 752 mmHg 83%
    12:00 +16°C° 0 mm 6 mps 752 mmHg 80%
    13:00 +16°C° 0 mm 6 mps 752 mmHg 80%
    14:00 +16°C° 0 mm 6 mps 752 mmHg 80%
    15:00 +15°C° 0 mm 6 mps 751 mmHg 80%
    16:00 +15°C° 0.2 mm 7 mps 751 mmHg 81%
    17:00 +15°C° 0.2 mm 8 mps 751 mmHg 83%
    18:00 +15°C° 0.2 mm 9 mps 750 mmHg 84%
    19:00 +14°C° 1.5 mm 10 mps 750 mmHg 85%
    20:00 +14°C° 1.5 mm 10 mps 750 mmHg 85%
    21:00 +14°C° 1.5 mm 11 mps 749 mmHg 86%
    22:00 +14°C° 1.4 mm 11 mps 749 mmHg 87%
    23:00 +14°C° 1.4 mm 11 mps 749 mmHg 87%

    20 October, Friday

    Time Temperature Precipitation Wind Pressure Humidity
    00:00 +14°C° 1.4 mm 11 mps 748 mmHg 87%
    01:00 +13°C° 0.3 mm 10 mps 749 mmHg 88%
    02:00 +12°C° 0.3 mm 9 mps 749 mmHg 89%
    03:00 +11°C° 0.3 mm 8 mps 750 mmHg 89%
    04:00 +10°C° 0 mm 7 mps 751 mmHg 90%
    05:00 +10°C° 0 mm 6 mps 752 mmHg 91%
    06:00 +9°C° 0 mm 5 mps 753 mmHg 93%
    07:00 +11°C° 0 mm 4 mps 754 mmHg 89%
    08:00 +11°C° 0 mm 3 mps 754 mmHg 85%
    09:00 +12°C° 0 mm 3 mps 755 mmHg 82%
    10:00 +13°C° 0 mm 3 mps 755 mmHg 77%
    11:00 +13°C° 0 mm 3 mps 755 mmHg 72%
    12:00 +14°C° 0 mm 4 mps 755 mmHg 67%
    13:00 +14°C° 0 mm 4 mps 755 mmHg 70%
    14:00 +14°C° 0 mm 5 mps 754 mmHg 72%
    15:00 +14°C° 0 mm 6 mps 754 mmHg 75%
    16:00 +14°C° 0 mm 6 mps 753 mmHg 77%
    17:00 +14°C° 0 mm 7 mps 753 mmHg 80%
    18:00 +13°C° 0 mm 8 mps 752 mmHg 83%
    19:00 +15°C° 0.2 mm 9 mps 751 mmHg 86%
    20:00 +16°C° 0.2 mm 9 mps 751 mmHg 88%
    21:00 +17°C° 0.2 mm 10 mps 751 mmHg 91%
    22:00 +16°C° 1 mm 10 mps 751 mmHg 89%
    23:00 +14°C° 1 mm 10 mps 751 mmHg 86%

    21 October, Saturday

    Time Temperature Precipitation Wind Pressure Humidity
    00:00 +13°C° 1 mm 10 mps 751 mmHg 84%
    01:00 +13°C° 0.1 mm 11 mps 751 mmHg 81%
    02:00 +12°C° 0.1 mm 11 mps 751 mmHg 77%
    03:00 +12°C° 0.1 mm 11 mps 751 mmHg 74%
    04:00 +12°C° 0.1 mm 12 mps 751 mmHg 72%
    05:00 +10°C° 0.1 mm 13 mps 751 mmHg 71%
    06:00 +10°C° 0.1 mm 13 mps 751 mmHg 69%
    07:00 +12°C° 0.2 mm 14 mps 750 mmHg 67%
    08:00 +11°C° 0.2 mm 15 mps 750 mmHg 66%
    09:00 +11°C° 0.2 mm 16 mps 750 mmHg 65%
    10:00 +13°C° 0.2 mm 16 mps 750 mmHg 64%
    11:00 +13°C° 0.2 mm 17 mps 750 mmHg 64%
    12:00 +13°C° 0.2 mm 17 mps 750 mmHg 63%
    13:00 +13°C° 0.2 mm 17 mps 750 mmHg 65%
    14:00 +13°C° 0.2 mm 16 mps 749 mmHg 67%
    15:00 +11°C° 0.2 mm 16 mps 749 mmHg 69%
    16:00 +11°C° 0.2 mm 15 mps 750 mmHg 69%
    17:00 +12°C° 0.2 mm 14 mps 750 mmHg 69%
    18:00 +10°C° 0.2 mm 13 mps 750 mmHg 70%
    19:00 +10°C° 0.1 mm 12 mps 751 mmHg 70%
    20:00 +9°C° 0.1 mm 12 mps 751 mmHg 70%
    21:00 +9°C° 0.1 mm 12 mps 752 mmHg 70%
    22:00 +9°C° 0.1 mm 12 mps 752 mmHg 69%
    23:00 +8°C° 0.1 mm 12 mps 753 mmHg 68%

    22 October, Sunday

    Time Temperature Precipitation Wind Pressure Humidity
    00:00 +8°C° 0.1 mm 11 mps 753 mmHg 67%
    01:00 +8°C° 0.1 mm 11 mps 753 mmHg 68%
    02:00 +8°C° 0.1 mm 11 mps 753 mmHg 68%
    03:00 +8°C° 0.1 mm 11 mps 754 mmHg 69%
    04:00 +8°C° 0.1 mm 11 mps 754 mmHg 70%
    05:00 +8°C° 0.1 mm 10 mps 755 mmHg 71%
    06:00 +8°C° 0.1 mm 10 mps 755 mmHg 72%
    07:00 +8°C° 0.1 mm 10 mps 756 mmHg 70%
    08:00 +9°C° 0.1 mm 10 mps 757 mmHg 68%
    09:00 +9°C° 0.1 mm 10 mps 758 mmHg 66%
    10:00 +11°C° 0 mm 10 mps 758 mmHg 64%
    11:00 +11°C° 0 mm 10 mps 759 mmHg 61%
    12:00 +12°C° 0 mm 10 mps 759 mmHg 59%
    13:00 +11°C° 0.1 mm 10 mps 759 mmHg 60%
    14:00 +11°C° 0.1 mm 10 mps 760 mmHg 61%
    15:00 +11°C° 0.1 mm 9 mps 760 mmHg 62%
    16:00 +10°C° 0 mm 9 mps 760 mmHg 64%
    17:00 +10°C° 0 mm 8 mps 761 mmHg 66%
    18:00 +9°C° 0 mm 7 mps 761 mmHg 69%
    19:00 +10°C° 0 mm 8 mps 761 mmHg 71%
    20:00 +10°C° 0 mm 8 mps 761 mmHg 73%
    21:00 +11°C° 0 mm 8 mps 761 mmHg 76%
    22:00 +11°C° 0.1 mm 8 mps 761 mmHg 77%
    23:00 +11°C° 0.1 mm 9 mps 761 mmHg 79%
    Show more